Weather Roundup
Issued by NWS

Home | Current Version | Previous Version | Graphics & Text | Print | Product List | Glossary Off
Versions: 1 2 3 4 5 6 7 8 9 10 11 12 13 14 15 16 17 18 19 20 21 22 23 24 25 26 27 28 29 30 31 32 33 34 35 36 37 38 39 40 41 42 43 44 45 46 47 48 49 50

000
NZUS93 KARX 011159
HRRWXR

CURRENT HOURLY OBSERVATIONS ACROSS
MUCH OF THE UPPER MISSISSIPPI VALLEY
NATIONAL WEATHER SERVICE LA CROSSE WI
700 AM CDT MON SEP 01 2014


...SOUTHEAST MINNESOTA...


CITY           SKY/WX    TMP DP  RH WIND       PRES   REMARKS
ROCHESTER      LGT RAIN  64  62  93 SW9       29.69R
ROCHESTER/MAYO CLOUDY    63  62  97 S9        29.68R
WINONA         RAIN      66  63  88 SW8G16    29.67S
AUSTIN         DRIZZLE   64  63  94 SW6       29.68R
ALBERT LEA     CLOUDY    66  64  94 W5        29.68R
DODGE CENTER   RAIN      64  63  94 W5        29.68R
PRESTON        CLOUDY    63  63 100 SW3       29.69S
OWATONNA       CLOUDY    64  63  94 W6        29.67S
FARIBAULT      CLOUDY    66  63  88 CALM      29.66S
$$

...ELSEWHERE IN MINNESOTA...


CITY           SKY/WX    TMP DP  RH WIND       PRES   REMARKS
MINNEAPOLIS    MOCLDY    65  64  97 W7        29.65R
INTNL FALLS    CLOUDY    58  57  97 W8        29.59R
DULUTH         CLOUDY    63  60  90 NW8       29.61R
RED WING       CLOUDY    66  64  94 W5        29.66R
REDWOOD FALLS  MOCLDY    63  62  97 NW9       29.67R
MANKATO        MOCLDY    64  59  82 W6        29.66S
WORTHINGTON    MOCLDY    63  61  94 NW3       29.72S
FAIRMONT       PTCLDY    64  59  82 NW3       29.68S
$$

...SOUTHWEST WISCONSIN...


CITY           SKY/WX    TMP DP  RH WIND       PRES   REMARKS
LA CROSSE      LGT RAIN  66  62  87 S8        29.68R
PRAIRIE DU CHI CLOUDY    66  62  85 S5        29.70S
BOSCOBEL       CLOUDY    67  63  87 SW7       29.69R
LONE ROCK      NOT AVBL
PLATTEVILLE    CLOUDY    65  63  91 SW7       29.71R
FORT MC COY    LGT RAIN  65  60  83 CALM      29.69R
CAMP DOUGLAS   CLOUDY    66  64  94 W5        29.67R
VIROQUA        PTSUNNY   65  65 100 SW10G16   29.70R
WIS DELLS      CLOUDY    69  58  67 SW7       29.67R
$$

...ELSEWHERE IN WISCONSIN...


CITY           SKY/WX    TMP DP  RH WIND       PRES   REMARKS
MILWAUKEE      MOCLDY    71  69  93 S8        29.74F
MADISON        CLOUDY    69  61  75 SE12      29.67S
GREEN BAY      PTCLDY    70  68  93 S9        29.66F
EAU CLAIRE     NOT AVBL
BLACK RVR FLS  CLOUDY    64  64 100 CALM      29.68R
MEDFORD        CLOUDY    61  60  97 CALM      29.66R
WAUSAU         CLOUDY    66  60  81 S5        29.65R
WIS RAPIDS     CLOUDY    66  60  81 CALM      29.67S
MARSHFIELD     CLOUDY    63  61  93 SW6       29.67R
RICE LAKE      DRIZZLE   64  62  94 S5        29.66S
$$

...NORTHEAST IOWA...


CITY           SKY/WX    TMP DP  RH WIND       PRES   REMARKS
WATERLOO       CLOUDY    66  63  90 S10       29.70S
DUBUQUE        CLOUDY    64  62  93 SW9G22    29.73R
DECORAH        CLOUDY    64  63  94 S9G16     29.70S
MASON CITY     LGT RAIN  66  65  96 SW12      29.71R
CHARLES CITY   LGT RAIN  64  63  94 S9G15     29.70S
OELWEIN        CLOUDY    64  63  94 S7        29.72S
$$

...ELSEWHERE IN IOWA...


CITY           SKY/WX    TMP DP  RH WIND       PRES   REMARKS
DES MOINES     CLOUDY    70  63  78 SW15      29.74R
IOWA CITY      CLOUDY    65  65 100 S8        29.76R
FORT DODGE     CLOUDY    66  64  94 SW7       29.72R
MARSHALLTOWN   CLOUDY    66  64  93 S14       29.72S FOG
CEDAR RAPIDS   CLOUDY    64  64 100 S8        29.73S
$$

...NORTHERN ILLINOIS...


CITY           SKY/WX    TMP DP  RH WIND       PRES   REMARKS
CHICAGO-OHARE  CLOUDY    74  68  81 S12       29.76F
DUPAGE         CLOUDY    73  70  90 S13       29.75F
CHICAGO-MIDWAY CLOUDY    76  71  85 S12       29.77F
MOLINE         CLOUDY    67  64  90 W10       29.76R
ROCKFORD       CLOUDY    71  69  93 S15       29.71S FOG
STERLING       MOCLDY    66  63  88 S6        29.72F
PEORIA         CLOUDY    75  70  84 S12       29.78F
$$

NOTE: "FAIR" INDICATES FEW OR NO CLOUDS BELOW 12,000 FEET WITH NO
SIGNIFICANT WEATHER AND/OR OBSTRUCTIONS TO VISIBILITY. WIND
SPEEDS ARE IN MILES-PER-HOUR.



USA.gov is the U.S. government's official web portal to all federal, state and local government web resources and services.